<?xml version="1.0"?>
<gpx xmlns="http://www.topografix.com/GPX/1/1" xmlns:xsi="http://www.w3.org/2001/XMLSchema-instance" version="1.1" creator="GPX RubyGem 1.0.0 -- http://dougfales.github.io/gpx/" xsi:schemaLocation="http://www.topografix.com/GPX/1/1 http://www.topografix.com/GPX/1/1/gpx.xsd">
  <metadata>
    <name/>
    <time>2026-05-07T11:26:13+00:00</time>
    <bound minlat="90.0" minlon="180.0" maxlat="-90.0" maxlon="-180.0"/>
  </metadata>
  <trk>
    <name/>
    <trkseg>
      <trkpt lat="45.502471" lon="10.733834">
        <time>1970-01-01T00:00:00+00:00</time>
        <ele>68.0</ele>
      </trkpt>
      <trkpt lat="45.502458" lon="10.733743">
        <time>1970-01-01T00:00:00+00:00</time>
        <ele>68.0</ele>
      </trkpt>
      <trkpt lat="45.502611" lon="10.733703">
        <time>1970-01-01T00:00:00+00:00</time>
        <ele>68.0</ele>
      </trkpt>
      <trkpt lat="45.502771" lon="10.733676">
        <time>1970-01-01T00:00:00+00:00</time>
        <ele>68.0</ele>
      </trkpt>
      <trkpt lat="45.502887" lon="10.733647">
        <time>1970-01-01T00:00:00+00:00</time>
        <ele>68.0</ele>
      </trkpt>
      <trkpt lat="45.503025" lon="10.733622">
        <time>1970-01-01T00:00:00+00:00</time>
        <ele>68.0</ele>
      </trkpt>
      <trkpt lat="45.50327" lon="10.733582">
        <time>1970-01-01T00:00:00+00:00</time>
        <ele>68.0</ele>
      </trkpt>
      <trkpt lat="45.503857" lon="10.733372">
        <time>1970-01-01T00:00:00+00:00</time>
        <ele>69.0</ele>
      </trkpt>
      <trkpt lat="45.504124" lon="10.73327">
        <time>1970-01-01T00:00:00+00:00</time>
        <ele>69.0</ele>
      </trkpt>
      <trkpt lat="45.504161" lon="10.733256">
        <time>1970-01-01T00:00:00+00:00</time>
        <ele>69.0</ele>
      </trkpt>
      <trkpt lat="45.504192" lon="10.733245">
        <time>1970-01-01T00:00:00+00:00</time>
        <ele>69.0</ele>
      </trkpt>
      <trkpt lat="45.504478" lon="10.733131">
        <time>1970-01-01T00:00:00+00:00</time>
        <ele>69.0</ele>
      </trkpt>
      <trkpt lat="45.504774" lon="10.733189">
        <time>1970-01-01T00:00:00+00:00</time>
        <ele>69.0</ele>
      </trkpt>
      <trkpt lat="45.505107" lon="10.733136">
        <time>1970-01-01T00:00:00+00:00</time>
        <ele>72.0</ele>
      </trkpt>
      <trkpt lat="45.5051" lon="10.732787">
        <time>1970-01-01T00:00:00+00:00</time>
        <ele>71.0</ele>
      </trkpt>
      <trkpt lat="45.505152" lon="10.732787">
        <time>1970-01-01T00:00:00+00:00</time>
        <ele>71.0</ele>
      </trkpt>
      <trkpt lat="45.505223" lon="10.732348">
        <time>1970-01-01T00:00:00+00:00</time>
        <ele>70.0</ele>
      </trkpt>
      <trkpt lat="45.505204" lon="10.732319">
        <time>1970-01-01T00:00:00+00:00</time>
        <ele>69.0</ele>
      </trkpt>
      <trkpt lat="45.505214" lon="10.732235">
        <time>1970-01-01T00:00:00+00:00</time>
        <ele>69.0</ele>
      </trkpt>
      <trkpt lat="45.505301" lon="10.731933">
        <time>1970-01-01T00:00:00+00:00</time>
        <ele>70.0</ele>
      </trkpt>
      <trkpt lat="45.505299" lon="10.731603">
        <time>1970-01-01T00:00:00+00:00</time>
        <ele>69.0</ele>
      </trkpt>
      <trkpt lat="45.505299" lon="10.731603">
        <time>1970-01-01T00:00:00+00:00</time>
        <ele>69.0</ele>
      </trkpt>
      <trkpt lat="45.505301" lon="10.731933">
        <time>1970-01-01T00:00:00+00:00</time>
        <ele>70.0</ele>
      </trkpt>
      <trkpt lat="45.505214" lon="10.732235">
        <time>1970-01-01T00:00:00+00:00</time>
        <ele>69.0</ele>
      </trkpt>
      <trkpt lat="45.505204" lon="10.732319">
        <time>1970-01-01T00:00:00+00:00</time>
        <ele>69.0</ele>
      </trkpt>
      <trkpt lat="45.505223" lon="10.732348">
        <time>1970-01-01T00:00:00+00:00</time>
        <ele>70.0</ele>
      </trkpt>
      <trkpt lat="45.505152" lon="10.732787">
        <time>1970-01-01T00:00:00+00:00</time>
        <ele>71.0</ele>
      </trkpt>
      <trkpt lat="45.5051" lon="10.732787">
        <time>1970-01-01T00:00:00+00:00</time>
        <ele>71.0</ele>
      </trkpt>
      <trkpt lat="45.505107" lon="10.733136">
        <time>1970-01-01T00:00:00+00:00</time>
        <ele>72.0</ele>
      </trkpt>
      <trkpt lat="45.504774" lon="10.733189">
        <time>1970-01-01T00:00:00+00:00</time>
        <ele>69.0</ele>
      </trkpt>
      <trkpt lat="45.504478" lon="10.733131">
        <time>1970-01-01T00:00:00+00:00</time>
        <ele>69.0</ele>
      </trkpt>
      <trkpt lat="45.504192" lon="10.733245">
        <time>1970-01-01T00:00:00+00:00</time>
        <ele>69.0</ele>
      </trkpt>
      <trkpt lat="45.504161" lon="10.733256">
        <time>1970-01-01T00:00:00+00:00</time>
        <ele>69.0</ele>
      </trkpt>
      <trkpt lat="45.504124" lon="10.73327">
        <time>1970-01-01T00:00:00+00:00</time>
        <ele>69.0</ele>
      </trkpt>
      <trkpt lat="45.503857" lon="10.733372">
        <time>1970-01-01T00:00:00+00:00</time>
        <ele>69.0</ele>
      </trkpt>
      <trkpt lat="45.50327" lon="10.733582">
        <time>1970-01-01T00:00:00+00:00</time>
        <ele>68.0</ele>
      </trkpt>
      <trkpt lat="45.503025" lon="10.733622">
        <time>1970-01-01T00:00:00+00:00</time>
        <ele>68.0</ele>
      </trkpt>
      <trkpt lat="45.502887" lon="10.733647">
        <time>1970-01-01T00:00:00+00:00</time>
        <ele>68.0</ele>
      </trkpt>
      <trkpt lat="45.502771" lon="10.733676">
        <time>1970-01-01T00:00:00+00:00</time>
        <ele>68.0</ele>
      </trkpt>
      <trkpt lat="45.502611" lon="10.733703">
        <time>1970-01-01T00:00:00+00:00</time>
        <ele>68.0</ele>
      </trkpt>
      <trkpt lat="45.502458" lon="10.733743">
        <time>1970-01-01T00:00:00+00:00</time>
        <ele>68.0</ele>
      </trkpt>
      <trkpt lat="45.502471" lon="10.733834">
        <time>1970-01-01T00:00:00+00:00</time>
        <ele>68.0</ele>
      </trkpt>
    </trkseg>
  </trk>
</gpx>
